This is the latest recevied weather packets stored in our database for station/object KI2K. If no packets are shown the sender has not sent any weather packets the latest 10 day(s).
| Time | Temp. | Humidity | Pressure | Rain* | Wind** | Luminosity | Snow |
|---|---|---|---|---|---|---|---|
| 1777511481 | 11.67° C | 67% | 1013.1 hPa | 0 mm | - | 0 W/m² | - |
| 1777511178 | 12.22° C | 67% | 1013 hPa | 0 mm | - | 0 W/m² | - |
| 1777510874 | 12.22° C | 66% | 1012.8 hPa | 0 mm | - | 0 W/m² | - |
| 1777510571 | 12.22° C | 66% | 1012.9 hPa | 0 mm | - | 0 W/m² | - |
| 1777510267 | 12.22° C | 65% | 1012.9 hPa | 0 mm | - | 0 W/m² | - |
| 1777509963 | 12.78° C | 64% | 1012.9 hPa | 0 mm | - | 0 W/m² | - |
| 1777509659 | 12.78° C | 64% | 1012.9 hPa | 0 mm | - | 0 W/m² | - |
| 1777509356 | 12.78° C | 64% | 1012.7 hPa | 0 mm | - | 2 W/m² | - |
| 1777509053 | 12.78° C | 65% | 1012.7 hPa | 0 mm | - | 3 W/m² | - |
| 1777508750 | 12.78° C | 64% | 1012.8 hPa | 0 mm | - | 5 W/m² | - |
| 1777508448 | 12.78° C | 64% | 1012.7 hPa | 0 mm | - | 10 W/m² | - |
| 1777508145 | 12.78° C | 63% | 1012.7 hPa | 0 mm | - | 11 W/m² | - |
| 1777507841 | 13.33° C | 63% | 1012.5 hPa | 0 mm | - | 13 W/m² | - |
| 1777507538 | 13.33° C | 62% | 1012.7 hPa | 0 mm | - | 16 W/m² | - |
| 1777507235 | 13.33° C | 61% | 1012.6 hPa | 0 mm | - | 25 W/m² | - |
| 1777506933 | 13.33° C | 62% | 1012.5 hPa | 0 mm | - | 26 W/m² | - |
| 1777506630 | 13.89° C | 62% | 1012.5 hPa | 0 mm | - | 29 W/m² | - |
| 1777506326 | 13.89° C | 62% | 1012.6 hPa | 0 mm | - | 34 W/m² | - |
| 1777506022 | 13.89° C | 61% | 1012.5 hPa | 0 mm | - | 35 W/m² | - |
| 1777505717 | 13.89° C | 61% | 1012.6 hPa | 0 mm | - | 46 W/m² | - |
| 1777505415 | 14.44° C | 60% | 1012.4 hPa | 0 mm | - | 46 W/m² | - |
| 1777505111 | 14.44° C | 61% | 1012.5 hPa | 0 mm | - | 48 W/m² | - |
| 1777504809 | 14.44° C | 60% | 1012.4 hPa | 0 mm | - | 46 W/m² | - |
| 1777504506 | 15° C | 63% | 1012.6 hPa | 0 mm | - | 66 W/m² | - |
| 1777504201 | 15° C | 63% | 1012.6 hPa | 0 mm | - | 54 W/m² | - |
* Rain latest hour (hover to see other rain measurements)
** Current wind speed in m/s (hover to see current wind gust speed)